CZ-6A DEB, 61450

Orbit data source: Space-Track

CZ-6A DEB, 61450 is space debris in LEO originally from a launch on Tue, 06 Aug 2024 UTC launched from the Taiyaun Space Center, China (TSC). Debris objects in space refer to the collection of defunct objects orbiting the Earth. Examples of debris include non-operational satellites, rocket bodies, and fragments generated from explosions, collisions, or faulty payload assembly.

Loading next visibility...
Identifier
61450, 2024-140ZG
Orbit
LEO
Country
Flag of CNCN / PRC
Related business
Manufacturer
SAST
Mission
Spacecraft
Bus & Motor
Unknown
Mass
Unknown
Launch date (UTC)
2024-08-06 (1 year ago)
Launch vehicle
Unknown
Launch site
Taiyaun Space Center, China (TSC)
Object type
Payload
Rocket body
Debris
Shape & HBR
Unknown shape, 0.1 m
Radar Cross Section
Small (<0.1 m²)

Expand to show TLE details & history
Last TLE update: 2 days ago

TLE from 2 days ago
0 CZ-6A DEB
1 61450U 24140ZG  25350.34806435  .00003001  00000-0  11670-2 0  9996
2 61450  89.1189 301.8082 0081366 107.8165 253.1927 14.27815360 67636
Epoch: 2025-12-16T08:21Z
TLE epoch observation values (Epoch: 2025-12-16T08:21:12.759Z)
Latitude
-0.00006°
Longitude
91.27147°
Altitude
819.431 km
Speed
7.434 km/s
True Right ascension
20h 07m 13s
True Declination
0° 00' 00"
Sunlit
Object was in daylight at epoch
Visualization orbit readout
Latitude
Unknown
Longitude
Unknown
Altitude
Unknown
Speed
Unknown
Apparent Right ascension
Unknown
Apparent Declination
Unknown
Sunlit
N/A
Visualization observer readout
Local Sidereal Time
01:27:33
Azimuth
Unknown
Elevation
Unknown
Doppler factor
Unknown
Orbital elements
Apogee altitude
854.355 km
Perigee altitude
737.609 km
Semi-major axis
7,174.119 km
Eccentricity
0.00814
Inclination
89.1189°
RAAN
301.8082°
Arg. of periapsis
107.8165°
True anomaly
252.3028°
Mean anomaly
253.1927°
Eccentric anomaly
252.74748°
Mean motion
3.57183 °/min
Orbital period
100.79 mins
BSTAR
0.001167
Loading maneuver chart data...
Computing Atmospheric mass density...
Loading historical data...
Loading historical data...
Loading historical data...
Loading historical data...
Loading historical data...
Loading historical data...
Loading historical data...

Documentation

Showing up to 5 results
|